TVF12HT LFPO-LFBO

Flight info

Callsign TVF12HT
Flight time 1h 1m
Altitude 29000
Route ERIXU DCT ETAMO DCT GUERE DCT NARAK
Aircraft B738/M-SDFGHIJ1RWY/LB1

Departure

Time 2026-05-05 14:39
Airport Paris-Orly Airport (LFPO)

Arrival

Time 2026-05-05 15:40
Airport Toulouse-Blagnac Airport (LFBO)
Time Latitude Longitude Altitude Speed Heading
2026-05-05 14:19 48.72751 2.35788 288 ft 0 kts 171°
2026-05-05 14:28 48.72765 2.35781 288 ft 2 kts 147°
2026-05-05 14:29 48.72776 2.35767 288 ft 2 kts 128°
2026-05-05 14:29 48.72784 2.35747 288 ft 2 kts 108°
2026-05-05 14:29 48.72786 2.35725 288 ft 2 kts 87°
2026-05-05 14:29 48.72783 2.35703 288 ft 2 kts 69°
2026-05-05 14:30 48.72778 2.35682 288 ft 2 kts 79°
2026-05-05 14:30 48.72778 2.35659 288 ft 2 kts 93°
2026-05-05 14:30 48.72780 2.35637 288 ft 2 kts 107°
2026-05-05 14:30 48.72786 2.35616 288 ft 2 kts 121°
2026-05-05 14:31 48.72794 2.35598 288 ft 2 kts 134°
2026-05-05 14:31 48.72806 2.35584 288 ft 2 kts 148°
2026-05-05 14:31 48.72819 2.35574 288 ft 2 kts 161°
2026-05-05 14:31 48.72831 2.35569 288 ft 0 kts 168°
2026-05-05 14:32 48.72832 2.35569 288 ft 0 kts 167°
2026-05-05 14:34 48.72813 2.35575 288 ft 7 kts 167°
2026-05-05 14:34 48.72757 2.35597 288 ft 9 kts 163°
2026-05-05 14:35 48.72689 2.35629 287 ft 10 kts 163°
2026-05-05 14:35 48.72617 2.35659 287 ft 10 kts 164°
2026-05-05 14:35 48.72543 2.35690 287 ft 11 kts 166°
2026-05-05 14:35 48.72469 2.35670 287 ft 11 kts 221°
2026-05-05 14:36 48.72400 2.35630 286 ft 11 kts 174°
2026-05-05 14:36 48.72322 2.35641 286 ft 11 kts 193°
2026-05-05 14:36 48.72247 2.35602 286 ft 11 kts 183°
2026-05-05 14:36 48.72168 2.35621 286 ft 11 kts 161°
2026-05-05 14:37 48.72094 2.35661 286 ft 11 kts 156°
2026-05-05 14:37 48.72042 2.35724 286 ft 9 kts 126°
2026-05-05 14:37 48.72008 2.35806 286 ft 8 kts 119°
2026-05-05 14:37 48.71968 2.35891 286 ft 11 kts 127°
2026-05-05 14:38 48.71967 2.36013 287 ft 13 kts 73°
2026-05-05 14:38 48.72017 2.36268 287 ft 53 kts 72°
2026-05-05 14:38 48.72179 2.37153 292 ft 118 kts 73°
2026-05-05 14:38 48.72444 2.38618 357 ft 163 kts 72°
2026-05-05 14:39 48.72738 2.40222 1104 ft 157 kts 69°
2026-05-05 14:39 48.73064 2.41712 1876 ft 151 kts 66°
2026-05-05 14:39 48.73387 2.43246 2553 ft 154 kts 69°
2026-05-05 14:39 48.73651 2.44776 3235 ft 154 kts 72°
2026-05-05 14:40 48.73897 2.46362 3851 ft 159 kts 72°
2026-05-05 14:40 48.74140 2.48062 4383 ft 170 kts 81°
2026-05-05 14:40 48.74203 2.49918 4845 ft 188 kts 85°
2026-05-05 14:40 48.74253 2.51969 5350 ft 204 kts 84°
2026-05-05 14:41 48.74327 2.54195 5953 ft 218 kts 84°
2026-05-05 14:41 48.74336 2.56527 6550 ft 231 kts 96°
2026-05-05 14:41 48.73666 2.58803 7112 ft 249 kts 129°
2026-05-05 14:41 48.72195 2.60283 7691 ft 266 kts 158°
2026-05-05 14:42 48.70370 2.60964 8242 ft 280 kts 167°
2026-05-05 14:42 48.68451 2.61470 8974 ft 286 kts 170°
2026-05-05 14:42 48.66448 2.61269 9771 ft 292 kts 193°
2026-05-05 14:42 48.64570 2.60196 10569 ft 296 kts 202°
2026-05-05 14:43 48.62683 2.58882 11280 ft 302 kts 202°
2026-05-05 14:43 48.60774 2.57567 12078 ft 306 kts 202°
2026-05-05 14:43 48.58809 2.56286 12849 ft 310 kts 201°
2026-05-05 14:43 48.56797 2.55032 13455 ft 321 kts 200°
2026-05-05 14:44 48.54693 2.53756 13932 ft 336 kts 200°
2026-05-05 14:44 48.52459 2.52414 14445 ft 350 kts 199°
2026-05-05 14:44 48.50212 2.51075 15438 ft 348 kts 201°
2026-05-05 14:44 48.47995 2.49750 16457 ft 345 kts 201°
2026-05-05 14:45 48.45756 2.48397 16971 ft 357 kts 201°
2026-05-05 14:45 48.43411 2.46978 17453 ft 369 kts 201°
2026-05-05 14:45 48.40971 2.45500 17906 ft 382 kts 201°
2026-05-05 14:45 48.38549 2.44032 18908 ft 377 kts 201°
2026-05-05 14:46 48.36132 2.42570 19947 ft 372 kts 200°
2026-05-05 14:46 48.33757 2.41139 20785 ft 372 kts 200°
2026-05-05 14:46 48.31325 2.39679 21446 ft 377 kts 200°
2026-05-05 14:46 48.28878 2.38212 22090 ft 381 kts 200°
2026-05-05 14:47 48.26386 2.36721 22693 ft 386 kts 200°
2026-05-05 14:47 48.23896 2.35233 23355 ft 389 kts 200°
2026-05-05 14:47 48.21383 2.33740 23981 ft 392 kts 199°
2026-05-05 14:47 48.18839 2.32227 24560 ft 396 kts 200°
2026-05-05 14:48 48.16261 2.30692 25100 ft 401 kts 199°
2026-05-05 14:48 48.13644 2.29139 25617 ft 406 kts 199°
2026-05-05 14:48 48.11032 2.27664 26383 ft 403 kts 196°
2026-05-05 14:48 48.08322 2.26522 26953 ft 403 kts 188°
2026-05-05 14:49 48.05558 2.26056 27480 ft 404 kts 180°
2026-05-05 14:49 48.02725 2.26022 27918 ft 407 kts 176°
2026-05-05 14:49 47.99868 2.26184 28122 ft 418 kts 174°
2026-05-05 14:49 47.96967 2.26428 28616 ft 421 kts 174°
2026-05-05 14:50 47.94159 2.26677 29321 ft 418 kts 173°
2026-05-05 14:50 47.91264 2.26924 30040 ft 416 kts 174°
2026-05-05 14:50 47.88356 2.27157 30641 ft 416 kts 173°
2026-05-05 14:50 47.85471 2.27374 31232 ft 414 kts 174°
2026-05-05 14:51 47.82599 2.27580 31692 ft 415 kts 174°
2026-05-05 14:51 47.79702 2.27778 31988 ft 415 kts 174°
2026-05-05 14:51 47.76873 2.27964 32197 ft 409 kts 175°
2026-05-05 14:51 47.74009 2.28149 32407 ft 406 kts 175°
2026-05-05 14:52 47.71217 2.28329 32594 ft 406 kts 175°
2026-05-05 14:52 47.68399 2.28505 32786 ft 405 kts 176°
2026-05-05 14:52 47.62754 2.28069 32824 ft 405 kts 184°
2026-05-05 14:53 47.57171 2.26986 32817 ft 404 kts 185°
2026-05-05 14:53 47.51595 2.25886 32835 ft 405 kts 185°
2026-05-05 14:54 47.46023 2.24869 32818 ft 404 kts 185°
2026-05-05 14:54 47.40431 2.23901 32825 ft 405 kts 184°
2026-05-05 14:55 47.34866 2.22963 32837 ft 404 kts 184°
2026-05-05 14:55 47.29285 2.22033 32829 ft 403 kts 184°
2026-05-05 14:56 47.23698 2.21105 32815 ft 404 kts 184°
2026-05-05 14:56 47.18129 2.20183 32821 ft 403 kts 185°
2026-05-05 14:57 47.12563 2.19265 32817 ft 404 kts 185°
2026-05-05 14:57 47.06982 2.18345 32825 ft 405 kts 185°
2026-05-05 14:58 47.01370 2.17421 32815 ft 404 kts 185°
2026-05-05 14:58 46.95794 2.16505 32825 ft 402 kts 185°
2026-05-05 14:59 46.90271 2.15601 32826 ft 400 kts 185°
2026-05-05 14:59 46.84712 2.14692 32833 ft 401 kts 185°
2026-05-05 15:00 46.80105 2.13941 32826 ft 401 kts 185°
2026-05-05 15:00 46.73623 2.12885 32822 ft 400 kts 185°
2026-05-05 15:01 46.68075 2.11983 32833 ft 401 kts 185°
2026-05-05 15:01 46.62537 2.11086 32842 ft 400 kts 185°
2026-05-05 15:02 46.57023 2.10194 32854 ft 399 kts 186°
2026-05-05 15:02 46.51515 2.09304 32844 ft 398 kts 186°
2026-05-05 15:03 46.46029 2.08420 32848 ft 398 kts 186°
2026-05-05 15:03 46.40538 2.07537 32847 ft 396 kts 186°
2026-05-05 15:04 46.35078 2.06661 32874 ft 396 kts 186°
2026-05-05 15:04 46.29594 2.05782 32869 ft 396 kts 187°
2026-05-05 15:05 46.21395 2.04472 32882 ft 396 kts 187°
2026-05-05 15:06 46.15890 2.03594 32870 ft 396 kts 187°
2026-05-05 15:06 46.10452 2.02458 32884 ft 396 kts 191°
2026-05-05 15:07 46.05054 2.00857 32875 ft 395 kts 193°
2026-05-05 15:07 45.99680 1.99240 32871 ft 397 kts 192°
2026-05-05 15:08 45.94250 1.97664 32866 ft 398 kts 192°
2026-05-05 15:08 45.88844 1.96137 32868 ft 396 kts 192°
2026-05-05 15:09 45.83391 1.94615 32867 ft 397 kts 192°
2026-05-05 15:09 45.78005 1.93122 32869 ft 395 kts 192°
2026-05-05 15:10 45.72622 1.91635 32870 ft 394 kts 192°
2026-05-05 15:10 45.67216 1.90144 32871 ft 395 kts 192°
2026-05-05 15:11 45.61829 1.88662 32871 ft 394 kts 192°
2026-05-05 15:11 45.56459 1.87187 32873 ft 393 kts 192°
2026-05-05 15:12 45.51086 1.85715 32873 ft 394 kts 192°
2026-05-05 15:12 45.45741 1.84252 32881 ft 391 kts 192°
2026-05-05 15:13 45.40407 1.82796 32887 ft 390 kts 192°
2026-05-05 15:13 45.35066 1.81340 32892 ft 390 kts 192°
2026-05-05 15:14 45.29761 1.79897 32897 ft 389 kts 192°
2026-05-05 15:14 45.24425 1.78448 32897 ft 389 kts 192°
2026-05-05 15:15 45.19130 1.77013 32902 ft 389 kts 193°
2026-05-05 15:15 45.13778 1.75565 32904 ft 389 kts 193°
2026-05-05 15:16 45.08463 1.74131 32902 ft 389 kts 193°
2026-05-05 15:16 45.03140 1.72697 32908 ft 388 kts 193°
2026-05-05 15:17 44.97871 1.71281 32808 ft 384 kts 193°
2026-05-05 15:17 44.95262 1.70582 32508 ft 380 kts 193°
2026-05-05 15:17 44.92680 1.69890 32036 ft 380 kts 193°
2026-05-05 15:17 44.90051 1.69185 31501 ft 380 kts 193°
2026-05-05 15:18 44.87463 1.68492 31060 ft 378 kts 193°
2026-05-05 15:18 44.84906 1.67808 30614 ft 376 kts 193°
2026-05-05 15:18 44.82326 1.67118 30109 ft 374 kts 193°
2026-05-05 15:18 44.79977 1.66491 29662 ft 371 kts 192°
2026-05-05 15:19 44.77473 1.65823 29184 ft 367 kts 193°
2026-05-05 15:19 44.74988 1.65161 28751 ft 362 kts 192°
2026-05-05 15:19 44.72501 1.64499 28299 ft 358 kts 192°
2026-05-05 15:19 44.70074 1.63854 27851 ft 355 kts 192°
2026-05-05 15:20 44.67688 1.63221 27415 ft 351 kts 192°
2026-05-05 15:20 44.65299 1.62586 26976 ft 347 kts 192°
2026-05-05 15:20 44.62915 1.61951 26537 ft 344 kts 192°
2026-05-05 15:20 44.60603 1.61336 26105 ft 341 kts 192°
2026-05-05 15:21 44.58270 1.60716 25671 ft 337 kts 192°
2026-05-05 15:21 44.55981 1.60108 25232 ft 334 kts 192°
2026-05-05 15:21 44.53706 1.59504 24808 ft 336 kts 192°
2026-05-05 15:21 44.51378 1.58885 24365 ft 339 kts 192°
2026-05-05 15:22 44.49101 1.58281 23926 ft 336 kts 191°
2026-05-05 15:22 44.46800 1.57672 23471 ft 332 kts 191°
2026-05-05 15:22 44.44551 1.57078 23044 ft 328 kts 191°
2026-05-05 15:22 44.42297 1.56483 22610 ft 325 kts 191°
2026-05-05 15:23 44.40088 1.55900 22187 ft 321 kts 191°
2026-05-05 15:23 44.37925 1.55330 21762 ft 318 kts 191°
2026-05-05 15:23 44.35716 1.55049 21280 ft 318 kts 180°
2026-05-05 15:23 44.33512 1.55262 20622 ft 322 kts 174°
2026-05-05 15:24 44.31276 1.55658 19911 ft 327 kts 175°
2026-05-05 15:24 44.29002 1.56038 19114 ft 334 kts 176°
2026-05-05 15:24 44.26702 1.56361 18607 ft 333 kts 176°
2026-05-05 15:24 44.24378 1.56663 18156 ft 335 kts 177°
2026-05-05 15:25 44.22058 1.56941 17703 ft 334 kts 177°
2026-05-05 15:25 44.19760 1.57205 17251 ft 332 kts 177°
2026-05-05 15:25 44.17475 1.57460 16799 ft 330 kts 177°
2026-05-05 15:25 44.15177 1.57713 16349 ft 327 kts 177°
2026-05-05 15:26 44.12934 1.57959 15903 ft 326 kts 177°
2026-05-05 15:26 44.10673 1.58207 15454 ft 324 kts 177°
2026-05-05 15:26 44.08433 1.58454 15011 ft 321 kts 177°
2026-05-05 15:26 44.06232 1.58697 14578 ft 318 kts 177°
2026-05-05 15:27 44.04034 1.58939 13973 ft 321 kts 178°
2026-05-05 15:27 44.01779 1.59186 13303 ft 324 kts 177°
2026-05-05 15:27 43.99542 1.59432 12738 ft 325 kts 177°
2026-05-05 15:27 43.97301 1.59678 12195 ft 324 kts 177°
2026-05-05 15:28 43.95045 1.59926 11714 ft 322 kts 177°
2026-05-05 15:28 43.92834 1.60169 11282 ft 318 kts 177°
2026-05-05 15:28 43.90659 1.60409 11023 ft 309 kts 177°
2026-05-05 15:28 43.88535 1.60643 10754 ft 301 kts 176°
2026-05-05 15:29 43.86438 1.60873 10480 ft 295 kts 176°
2026-05-05 15:29 43.84419 1.61094 10206 ft 289 kts 176°
2026-05-05 15:29 43.82422 1.61312 9941 ft 283 kts 176°
2026-05-05 15:29 43.80489 1.61523 9805 ft 272 kts 176°
2026-05-05 15:30 43.78610 1.61728 9393 ft 273 kts 176°
2026-05-05 15:30 43.76711 1.61935 9021 ft 272 kts 176°
2026-05-05 15:30 43.74836 1.62139 8659 ft 271 kts 176°
2026-05-05 15:30 43.72952 1.62344 8297 ft 270 kts 176°
2026-05-05 15:31 43.71099 1.62546 7938 ft 269 kts 177°
2026-05-05 15:31 43.69226 1.62751 7578 ft 268 kts 177°
2026-05-05 15:31 43.67374 1.62952 7216 ft 268 kts 177°
2026-05-05 15:31 43.65515 1.63153 6849 ft 267 kts 177°
2026-05-05 15:32 43.63647 1.63354 6470 ft 268 kts 177°
2026-05-05 15:32 43.61792 1.63481 6105 ft 267 kts 183°
2026-05-05 15:32 43.59961 1.63302 5753 ft 266 kts 188°
2026-05-05 15:32 43.58119 1.62970 5394 ft 265 kts 190°
2026-05-05 15:33 43.56313 1.62625 5089 ft 262 kts 189°
2026-05-05 15:33 43.54516 1.62299 4944 ft 254 kts 189°
2026-05-05 15:33 43.52804 1.62003 4788 ft 247 kts 189°
2026-05-05 15:33 43.51096 1.61715 4720 ft 248 kts 190°
2026-05-05 15:34 43.49405 1.61173 4624 ft 249 kts 205°
2026-05-05 15:34 43.48053 1.59755 4449 ft 245 kts 239°
2026-05-05 15:34 43.47463 1.57630 4254 ft 237 kts 262°
2026-05-05 15:34 43.47248 1.55411 4044 ft 229 kts 269°
2026-05-05 15:35 43.47411 1.53279 3823 ft 221 kts 288°
2026-05-05 15:35 43.48160 1.51503 3612 ft 212 kts 314°
2026-05-05 15:35 43.49260 1.50238 3426 ft 202 kts 323°
2026-05-05 15:35 43.50372 1.49112 3269 ft 192 kts 323°
2026-05-05 15:36 43.51407 1.48051 3092 ft 186 kts 322°
2026-05-05 15:36 43.52441 1.46979 2846 ft 182 kts 322°
2026-05-05 15:36 43.53443 1.45945 2596 ft 179 kts 322°
2026-05-05 15:36 43.54401 1.44957 2372 ft 165 kts 321°
2026-05-05 15:37 43.55265 1.44065 2171 ft 148 kts 321°
2026-05-05 15:37 43.56066 1.43236 1915 ft 136 kts 320°
2026-05-05 15:37 43.56809 1.42466 1772 ft 134 kts 320°
2026-05-05 15:37 43.57565 1.41684 1587 ft 137 kts 320°
2026-05-05 15:38 43.58321 1.40889 1409 ft 137 kts 320°
2026-05-05 15:38 43.59091 1.40101 1212 ft 138 kts 320°
2026-05-05 15:38 43.59850 1.39320 1031 ft 138 kts 319°
2026-05-05 15:38 43.60630 1.38531 846 ft 136 kts 320°
2026-05-05 15:39 43.61373 1.37749 666 ft 133 kts 319°
2026-05-05 15:39 43.62112 1.36991 508 ft 131 kts 319°
2026-05-05 15:39 43.62705 1.36371 499 ft 86 kts 322°
2026-05-05 15:39 43.63130 1.35927 499 ft 66 kts 323°
2026-05-05 15:40 43.63365 1.35684 498 ft 34 kts 323°
2026-05-05 15:40 43.63508 1.35536 497 ft 15 kts 329°
2026-05-05 15:40 43.63605 1.35551 497 ft 14 kts 45°
2026-05-05 15:40 43.63668 1.35663 496 ft 15 kts 53°
2026-05-05 15:41 43.63732 1.35779 496 ft 15 kts 53°
2026-05-05 15:41 43.63797 1.35896 496 ft 14 kts 52°
2026-05-05 15:41 43.63805 1.36003 495 ft 11 kts 134°
2026-05-05 15:41 43.63741 1.36068 496 ft 11 kts 140°
2026-05-05 15:42 43.63679 1.36136 496 ft 11 kts 144°
2026-05-05 15:42 43.63617 1.36200 496 ft 11 kts 144°
2026-05-05 15:42 43.63553 1.36263 497 ft 11 kts 143°
2026-05-05 15:42 43.63486 1.36333 497 ft 12 kts 143°
2026-05-05 15:43 43.63405 1.36418 497 ft 17 kts 143°
2026-05-05 15:43 43.63298 1.36529 497 ft 21 kts 143°
2026-05-05 15:43 43.63173 1.36660 497 ft 23 kts 143°
2026-05-05 15:43 43.63044 1.36794 497 ft 22 kts 142°
2026-05-05 15:44 43.62925 1.36918 498 ft 15 kts 143°
2026-05-05 15:44 43.62854 1.36993 498 ft 10 kts 135°
2026-05-05 15:44 43.62849 1.37086 498 ft 10 kts 70°
2026-05-05 15:44 43.62891 1.37172 498 ft 10 kts 50°
2026-05-05 15:45 43.62951 1.37199 498 ft 6 kts 18°
2026-05-05 15:45 43.62986 1.37246 498 ft 6 kts 54°
2026-05-05 15:45 43.62996 1.37264 498 ft 0 kts 53°